Temperature
34 34 34 34 35 35 35 33 32 33 34 34 34 34 33 33 33 32 31 30 29 28 27 26 25 24 23 22 21 21 21 20 20 20 20 20 19 19 19 19 19 19 19 18
34 34 35 36 36 36 35 34 33 34 35 34 34 34 34 34 34 33 32 31 30 29 28 26 25 25 23 22 22 21 21 21 20 20 20 20 20 20 19 19 19 19 19 19
33 35 36 35 35 35 35 34 34 33 34 35 34 32 32 33 33 33 32 31 31 30 28 27 26 25 24 23 22 21 21 21 21 20 20 20 20 20 19 19 19 19 19 19
34 35 35 35 35 35 34 36 35 34 34 33 33 31 31 32 32 33 33 32 30 30 29 27 26 25 24 23 22 22 21 21 21 20 20 20 20 20 20 20 19 19 19 19
34 35 35 34 35 35 35 36 36 35 34 33 33 32 31 32 31 32 33 32 31 30 30 28 27 26 25 24 23 22 22 21 21 21 20 20 20 20 20 20 20 19 19 19
34 36 35 35 36 36 36 35 35 35 34 31 32 32 31 32 32 32 32 32 31 31 30 29 28 26 25 24 23 22 22 22 21 21 21 20 20 20 20 20 20 19 19 19
33 34 35 35 35 35 35 33 32 31 31 31 32 32 32 33 33 33 32 32 32 31 30 29 28 27 26 25 24 23 22 22 22 21 21 21 20 20 20 20 20 20 20 19
32 32 34 35 34 34 34 34 31 30 30 30 31 31 32 34 34 34 33 33 32 31 30 29 28 27 26 25 24 23 23 22 22 22 21 21 21 20 20 20 20 20 20 20
32 32 35 35 35 34 33 33 34 33 32 31 31 31 32 33 34 34 34 33 32 31 31 30 29 27 26 25 24 24 23 22 22 22 22 21 21 21 20 20 20 20 20 20
33 31 34 35 35 35 34 34 34 32 30 30 31 31 30 30 31 33 33 33 32 31 31 30 29 28 26 25 25 24 23 23 22 22 22 21 21 21 21 20 20 20 20 20
33 31 32 33 33 33 33 33 32 32 32 31 30 30 32 30 31 32 33 32 32 31 31 30 29 28 27 25 24 24 23 22 22 22 22 21 21 21 21 20 20 20 20 20
32 31 31 32 34 34 33 33 33 31 30 31 31 31 33 32 31 31 32 31 31 31 30 29 28 27 26 26 24 23 23 22 22 22 22 21 21 21 20 20 20 20 20 20
30 30 29 30 31 33 33 33 33 33 32 31 31 30 32 32 31 30 30 30 30 29 29 28 27 26 26 25 24 23 23 22 22 21 21 21 21 21 20 20 20 20 20 20
29 29 29 29 30 31 31 32 32 32 31 31 31 31 30 30 30 30 29 29 29 28 27 27 26 25 25 24 24 24 23 22 22 21 21 21 21 21 21 20 20 20 19 19
30 28 29 30 31 31 31 31 32 31 31 31 31 31 30 29 29 29 29 28 27 26 25 25 24 24 24 24 23 23 23 22 22 21 21 20 20 20 20 20 20 19 19 19
29 28 28 28 30 31 30 31 32 31 31 31 31 30 30 29 28 28 28 27 26 25 24 24 23 23 23 23 23 22 22 22 21 21 21 20 20 20 20 19 19 19 19 19
28 27 26 27 29 29 29 31 31 31 31 31 30 29 29 28 26 26 26 25 25 24 23 23 22 22 22 22 22 22 21 21 21 21 20 20 20 19 19 19 19 19 19 19
27 26 26 27 27 26 29 31 30 30 30 30 29 29 28 27 26 25 25 24 24 23 22 22 22 21 21 21 21 21 21 21 20 20 20 20 19 19 19 19 19 19 19 18
28 26 26 26 26 27 28 28 28 27 27 28 28 28 27 26 25 24 23 23 22 22 21 21 21 21 21 21 21 21 20 20 20 20 19 19 19 19 19 19 19 18 18 18
27 26 25 25 25 25 26 27 27 27 25 25 26 25 25 25 25 24 22 21 21 21 21 20 20 20 20 20 20 20 20 20 19 19 19 19 19 19 18 18 18 18 18 18
25 25 25 25 25 25 26 26 26 24 23 23 23 23 24 24 23 22 21 21 20 20 20 19 19 19 19 19 19 19 19 19 19 19 19 18 18 18 18 18 18 18 17 17
25 24 24 24 24 23 24 24 23 22 21 21 22 22 22 22 21 21 20 20 19 19 19 19 18 18 18 18 18 18 18 18 18 18 18 18 18 18 18 18 18 17 17 17
24 23 23 23 23 22 22 22 21 21 21 21 21 21 21 21 20 20 19 19 19 18 18 18 18 18 18 18 18 18 18 18 17 17 17 17 17 17 17 17 17 17 17 16
23 23 23 22 23 23 22 22 21 20 20 20 20 20 20 20 19 19 19 18 18 18 17 17 17 17 17 17 17 17 17 17 17 17 17 17 17 17 17 17 17 17 16 16
22 22 22 22 21 21 21 21 20 20 20 19 20 19 19 19 18 18 18 17 17 17 17 17 17 17 17 16 16 16 16 16 16 16 16 16 16 16 16 16 16 16 16 16
21 20 20 20 20 20 20 20 19 19 19 19 19 18 18 18 17 17 17 17 17 16 16 16 16 16 16 16 16 15 16 16 15 15 15 16 16 16 16 16 16 16 16 15
Wind_Speed
15 15 14 14 16 13 9 5 7 6 6 8 7 5 11 13 13 14 13 13 14 13 14 14 13 14 13 11 10 9 8 8 6 5 5 4 4 3 3 3 5 6 5 4
16 17 17 16 14 12 12 10 9 6 7 7 6 6 8 11 11 13 15 15 15 15 15 14 14 14 14 12 11 10 9 9 8 6 4 4 4 3 3 3 4 5 5 4
20 16 13 15 15 15 14 12 9 8 8 7 7 6 7 8 8 9 13 14 14 17 16 15 14 13 14 14 13 12 10 10 8 7 5 4 3 2 3 4 4 4 5 5
19 17 14 15 16 16 14 12 10 9 10 7 7 6 6 7 8 11 12 13 14 14 16 16 15 14 14 14 14 11 10 9 8 7 6 7 6 5 4 4 4 5 5 5
18 17 16 17 16 15 13 12 12 12 12 11 8 8 7 11 10 10 11 12 12 14 16 17 17 15 14 15 14 12 11 9 9 8 7 6 5 4 4 4 5 5 5 5
19 17 15 17 15 13 12 13 14 13 12 13 12 11 6 7 9 7 8 10 13 12 12 15 16 14 13 13 13 13 12 10 9 8 7 7 6 4 4 4 5 5 4 4
19 18 16 14 14 14 14 13 11 11 10 11 10 12 6 8 9 10 11 12 13 12 11 13 15 16 14 14 14 14 13 11 10 10 8 7 6 6 5 5 5 5 4 4
17 16 17 15 15 14 15 17 14 12 11 10 9 10 8 7 6 8 10 12 13 13 14 14 16 15 14 14 14 14 14 12 11 10 8 7 6 6 5 5 4 5 3 3
14 14 13 16 16 17 17 17 17 15 16 12 9 8 6 4 1 5 7 10 11 11 11 13 14 14 14 14 13 13 13 12 11 10 9 7 7 6 5 5 5 4 3 4
14 14 14 12 12 16 17 16 12 13 12 13 11 10 5 5 4 4 6 8 9 11 12 13 13 14 13 12 11 12 12 11 10 9 9 9 8 6 5 5 5 4 4 3
14 14 14 13 14 15 16 17 14 12 12 13 10 6 3 6 5 6 6 8 9 9 10 10 11 13 12 12 12 11 12 11 10 9 8 7 8 7 7 6 6 5 4 4
10 11 13 14 13 14 15 17 16 12 11 12 12 6 2 5 4 2 2 5 6 6 8 10 9 9 10 10 10 10 10 11 10 9 9 8 7 7 7 7 6 5 5 4
6 8 11 14 13 13 14 16 16 15 13 13 13 6 4 5 5 4 3 6 7 6 8 8 9 7 7 8 8 9 9 9 9 9 8 8 8 7 7 6 5 5 5 5
5 10 13 15 10 8 13 16 16 15 14 13 10 6 4 3 3 4 5 5 7 8 8 8 8 6 5 5 6 6 7 7 8 8 8 8 8 7 7 6 6 6 5 5
7 12 15 17 17 16 16 15 15 14 14 15 9 6 4 4 2 3 4 7 8 9 8 7 7 6 5 4 5 5 4 4 5 6 7 7 6 6 6 5 5 5 5 6
7 10 13 17 18 18 18 17 15 15 14 13 8 4 3 5 5 4 6 7 9 8 7 6 6 6 4 4 3 3 3 3 3 4 4 5 5 5 6 6 5 5 5 4
8 8 12 15 17 18 19 16 14 12 12 11 8 3 6 6 6 4 6 7 7 7 6 5 6 5 4 3 2 1 1 2 3 3 3 3 4 5 5 6 5 6 5 5
10 8 8 13 14 18 13 8 8 8 9 5 3 3 6 6 7 7 7 6 6 6 5 4 4 3 3 2 1 1 2 1 2 2 2 2 3 4 4 4 4 4 4 4
11 8 10 12 15 15 11 5 5 5 5 6 1 4 5 6 7 8 8 7 6 6 5 5 4 4 4 4 2 2 2 1 1 2 2 3 3 3 3 4 4 4 4 4
12 8 11 12 14 13 6 4 7 4 3 8 6 3 3 2 2 4 6 6 5 5 4 4 5 4 5 4 4 2 2 1 1 1 1 2 2 3 3 4 4 4 4 4
11 11 14 14 15 8 3 4 3 4 2 8 6 5 2 2 4 4 5 6 5 4 4 4 4 3 3 3 3 2 2 2 1 1 2 2 2 3 4 4 3 3 3 4
10 10 10 12 14 7 5 4 3 3 4 6 6 5 5 6 5 4 4 5 4 3 3 3 2 3 3 3 3 2 1 2 2 2 2 3 3 3 3 2 3 3 3 4
5 3 3 3 2 3 5 5 4 4 4 2 2 3 3 2 3 3 3 3 3 3 3 3 3 3 3 2 1 1 1 2 2 2 2 3 3 2 2 2 3 3 3 4
4 3 2 2 0 2 4 5 6 6 6 5 4 3 1 2 2 3 3 2 1 2 2 2 2 2 2 3 3 2 1 2 2 3 3 3 3 3 2 2 2 2 2 2
6 4 4 4 1 2 2 4 4 4 4 5 4 3 3 2 2 1 1 2 2 1 1 2 2 2 2 3 3 3 2 2 2 3 3 4 3 2 2 1 1 0 0 1
5 3 3 2 4 4 5 6 4 4 5 4 3 3 3 2 2 2 2 2 2 3 2 3 3 3 3 3 4 4 3 3 3 4 4 4 3 2 2 2 2 5 3 2
Wind_Direction
237 242 243 243 242 247 256 242 261 241 218 236 233 201 174 185 187 175 174 176 172 174 171 160 166 166 160 157 159 165 171 161 166 172 174 182 178 183 178 171 157 167 198 185
241 239 247 252 258 253 255 237 240 243 224 226 229 230 197 191 197 180 178 179 176 175 171 165 172 170 165 163 164 167 174 170 180 173 176 181 174 183 189 175 150 176 195 192
240 243 246 252 255 258 256 251 243 236 246 238 236 235 224 205 197 193 184 181 181 176 170 169 174 173 170 168 171 178 178 173 183 171 180 182 162 188 189 178 165 185 200 199
246 246 246 250 252 254 260 261 257 251 254 249 241 246 226 206 206 205 189 181 183 179 171 171 175 177 176 172 174 170 169 172 176 177 189 189 187 193 193 180 171 182 196 201
246 245 244 247 251 254 263 273 271 264 265 267 254 251 226 184 197 211 191 182 179 180 177 173 176 177 177 174 171 167 166 172 176 188 192 197 200 194 185 167 169 183 190 200
257 254 245 247 251 252 261 265 265 263 264 263 261 257 235 203 186 190 188 181 176 181 175 172 171 168 171 169 167 166 166 173 178 190 194 198 208 194 183 177 174 188 184 190
246 249 248 246 250 246 244 249 253 251 248 256 268 265 242 206 180 176 181 178 171 171 172 171 167 167 169 169 168 166 168 175 181 188 194 195 204 202 200 198 186 198 192 185
240 237 232 231 237 246 244 244 247 256 256 254 253 254 249 236 176 164 164 161 165 173 174 174 170 166 169 172 171 168 169 176 182 186 190 191 193 205 202 204 205 202 208 185
255 252 236 225 227 236 244 248 254 256 258 262 247 252 261 300 181 167 164 156 162 171 169 165 164 164 171 175 171 169 167 174 182 185 182 187 189 204 209 190 209 209 206 194
260 271 260 234 223 234 244 254 260 258 264 266 249 240 217 188 220 194 162 156 157 165 166 164 165 164 167 174 169 165 166 173 179 183 185 187 191 195 203 211 211 213 200 203
254 264 262 251 229 232 233 243 254 269 272 271 267 253 186 159 192 221 185 164 158 166 162 160 158 154 161 168 172 166 166 171 178 182 184 186 183 193 203 211 211 210 206 197
257 259 261 256 248 244 245 246 243 247 258 271 275 264 180 141 153 164 139 125 120 133 142 143 140 147 155 159 164 163 168 175 178 179 179 185 182 188 198 203 204 198 204 203
285 268 260 252 245 241 246 249 247 249 252 256 261 240 182 134 105 94 94 97 101 102 98 108 127 143 149 151 155 160 170 175 176 175 177 182 187 189 196 201 196 194 198 205
266 260 261 261 260 255 250 250 254 256 255 253 247 222 164 131 104 86 89 90 94 89 92 95 101 107 114 130 138 147 158 167 174 173 178 182 191 190 192 197 195 194 196 204
255 254 260 269 273 268 262 251 246 249 260 267 259 240 175 152 136 111 98 98 90 81 77 81 97 99 110 123 126 136 148 156 164 169 180 183 185 188 188 193 197 194 198 203
247 263 267 266 268 268 266 257 253 248 252 258 256 254 115 118 80 86 96 96 96 90 84 73 75 77 83 87 107 129 145 145 153 170 183 178 184 191 194 197 195 192 197 201
254 260 263 263 265 269 259 256 258 255 250 256 254 243 119 118 99 87 84 93 91 85 76 76 72 67 58 57 56 96 147 155 160 167 184 184 187 187 191 200 191 193 196 198
244 255 259 262 264 257 264 277 275 277 277 267 223 134 114 112 107 95 81 80 85 80 76 64 71 72 66 49 74 57 70 149 163 166 186 194 202 202 198 198 197 194 193 196
234 235 249 254 255 254 259 293 315 291 290 332 1 108 106 106 119 102 82 68 62 69 60 44 46 60 49 32 40 62 48 38 174 169 191 215 212 206 205 205 202 199 197 202
228 220 240 250 258 260 275 339 349 320 266 9 20 60 93 125 185 114 83 79 70 66 65 50 32 44 53 43 32 50 53 57 52 34 254 232 221 207 209 216 212 203 198 205
226 225 234 246 254 258 326 355 342 267 327 8 17 13 36 48 49 78 74 66 59 66 68 63 48 32 46 36 29 30 15 1 355 329 285 275 249 225 212 205 206 212 215 209
241 239 244 249 252 250 12 38 44 52 48 15 8 14 34 56 67 76 75 72 58 52 68 71 52 36 37 32 27 29 352 336 329 312 277 267 262 251 229 212 215 213 219 220
269 282 275 288 278 64 45 57 44 40 50 26 348 7 44 35 59 57 58 69 62 22 24 33 31 28 26 22 14 321 299 310 310 302 288 269 262 260 243 228 227 220 218 226
271 306 282 268 186 42 49 49 35 22 7 343 343 351 11 15 30 36 29 26 43 27 5 351 344 360 0 346 327 312 292 281 283 281 277 262 240 240 239 255 243 213 236 232
312 306 280 256 341 337 14 34 20 5 334 322 333 327 336 342 359 20 18 351 337 338 327 314 314 320 323 327 321 324 330 303 288 279 272 270 260 238 206 172 17 168 316 230
299 318 307 317 10 341 341 358 345 337 325 331 337 331 318 310 293 298 311 313 309 314 315 302 301 311 321 326 326 329 324 305 290 284 279 273 261 236 208 164 109 65 88 81
Height
1465 1466 1467 1462 1456 1457 1458 1467 1474 1468 1461 1463 1464 1465 1467 1470 1472 1477 1482 1486 1491 1496 1501 1504 1509 1511 1513 1515 1517 1520 1522 1523 1525 1527 1528 1530 1532 1533 1535 1536 1536 1537 1538 1539
1464 1465 1457 1453 1451 1453 1456 1464 1468 1463 1457 1459 1463 1464 1463 1466 1468 1471 1477 1482 1487 1492 1497 1501 1505 1509 1511 1513 1515 1518 1520 1522 1524 1526 1527 1529 1531 1532 1534 1535 1535 1536 1537 1538
1463 1457 1451 1452 1453 1456 1455 1459 1461 1464 1457 1454 1462 1470 1466 1464 1466 1469 1472 1477 1482 1487 1492 1497 1502 1505 1508 1510 1513 1516 1518 1520 1522 1524 1526 1529 1530 1531 1533 1534 1534 1535 1536 1537
1455 1450 1451 1453 1454 1453 1459 1448 1450 1456 1463 1466 1465 1486 1472 1465 1465 1466 1468 1472 1479 1483 1488 1493 1498 1502 1506 1508 1511 1514 1516 1518 1520 1523 1525 1527 1528 1529 1531 1532 1533 1534 1535 1536
1453 1448 1450 1454 1451 1448 1451 1445 1448 1452 1459 1466 1465 1476 1473 1461 1467 1466 1465 1468 1474 1479 1484 1488 1493 1498 1503 1506 1509 1511 1514 1516 1519 1521 1523 1525 1527 1528 1529 1530 1531 1532 1533 1534
1448 1443 1444 1446 1444 1445 1446 1449 1451 1452 1459 1480 1471 1475 1476 1461 1461 1460 1462 1466 1471 1476 1481 1485 1490 1495 1500 1504 1507 1509 1511 1514 1516 1519 1521 1523 1525 1527 1528 1529 1530 1531 1532 1532
1453 1446 1441 1443 1447 1446 1449 1462 1477 1483 1484 1483 1467 1471 1467 1452 1450 1453 1457 1463 1468 1473 1478 1483 1487 1492 1496 1501 1504 1506 1508 1511 1514 1516 1519 1521 1523 1524 1526 1527 1528 1529 1530 1531
1460 1457 1442 1441 1447 1452 1451 1456 1478 1493 1492 1482 1470 1474 1459 1445 1445 1449 1452 1458 1464 1469 1473 1479 1483 1488 1493 1497 1501 1504 1506 1508 1511 1514 1516 1518 1520 1522 1524 1525 1526 1527 1528 1529
1454 1453 1435 1435 1438 1444 1452 1453 1447 1462 1470 1480 1476 1465 1455 1446 1446 1448 1451 1455 1461 1466 1470 1475 1480 1486 1490 1495 1498 1501 1503 1506 1509 1511 1514 1516 1517 1519 1521 1523 1524 1525 1526 1527
1445 1454 1439 1433 1436 1439 1442 1445 1451 1462 1480 1485 1476 1471 1468 1459 1454 1450 1451 1454 1459 1464 1467 1472 1477 1483 1488 1492 1496 1499 1501 1503 1506 1509 1511 1513 1515 1516 1518 1520 1522 1523 1524 1525
1442 1453 1447 1439 1443 1447 1446 1449 1452 1456 1459 1475 1483 1477 1449 1452 1450 1451 1452 1455 1458 1462 1466 1470 1475 1480 1485 1490 1494 1496 1499 1501 1504 1506 1508 1511 1512 1514 1515 1517 1519 1520 1521 1522
1443 1449 1454 1444 1434 1434 1439 1443 1448 1465 1467 1462 1470 1470 1444 1446 1448 1449 1451 1454 1457 1461 1465 1469 1475 1479 1484 1488 1492 1495 1497 1499 1501 1504 1506 1508 1510 1511 1513 1514 1516 1517 1518 1519
1450 1455 1466 1460 1450 1440 1440 1439 1440 1445 1453 1461 1468 1468 1445 1448 1451 1453 1455 1457 1460 1462 1465 1469 1474 1479 1483 1487 1490 1493 1496 1498 1500 1501 1503 1505 1507 1508 1510 1512 1513 1514 1515 1516
1453 1457 1463 1467 1456 1447 1448 1444 1440 1446 1455 1458 1458 1458 1452 1450 1453 1456 1458 1460 1462 1465 1467 1470 1474 1478 1482 1486 1488 1491 1493 1496 1498 1500 1501 1502 1504 1505 1507 1509 1510 1511 1512 1513
1452 1458 1455 1451 1445 1443 1443 1443 1442 1446 1449 1454 1451 1451 1452 1452 1454 1458 1460 1462 1465 1468 1472 1474 1477 1479 1482 1485 1488 1490 1492 1495 1496 1498 1499 1500 1501 1503 1505 1506 1507 1509 1509 1510
1451 1457 1457 1456 1447 1443 1444 1440 1439 1441 1442 1444 1447 1452 1449 1453 1458 1460 1462 1464 1467 1472 1475 1477 1477 1479 1482 1485 1488 1489 1491 1493 1495 1496 1497 1498 1499 1500 1501 1503 1504 1505 1506 1507
1454 1460 1464 1462 1450 1447 1452 1441 1439 1439 1438 1442 1449 1452 1451 1456 1460 1464 1466 1468 1470 1472 1475 1477 1479 1481 1483 1486 1487 1488 1490 1491 1492 1493 1495 1496 1497 1498 1498 1499 1500 1501 1502 1503
1456 1461 1462 1462 1460 1471 1448 1434 1435 1439 1439 1440 1443 1448 1453 1458 1462 1466 1469 1472 1473 1474 1476 1477 1478 1481 1483 1485 1486 1487 1487 1489 1490 1491 1492 1493 1494 1495 1496 1497 1497 1498 1498 1499
1449 1457 1461 1462 1464 1458 1445 1440 1442 1446 1447 1445 1446 1450 1454 1459 1463 1467 1470 1473 1475 1477 1479 1479 1479 1481 1482 1483 1484 1485 1486 1488 1489 1489 1490 1491 1492 1492 1493 1493 1494 1494 1495 1495
1447 1451 1460 1460 1467 1467 1453 1444 1445 1447 1456 1453 1452 1454 1456 1459 1463 1468 1470 1473 1474 1477 1479 1480 1480 1480 1481 1482 1483 1484 1484 1486 1487 1486 1487 1488 1488 1489 1489 1490 1491 1491 1492 1493
1452 1455 1458 1459 1461 1457 1451 1447 1449 1463 1468 1460 1459 1459 1460 1462 1465 1470 1471 1473 1475 1477 1478 1479 1480 1480 1480 1480 1481 1482 1483 1483 1484 1484 1484 1485 1485 1485 1486 1487 1488 1489 1489 1490
1451 1455 1457 1457 1462 1465 1455 1453 1459 1465 1464 1463 1463 1464 1464 1466 1468 1470 1472 1473 1476 1477 1478 1479 1479 1479 1479 1479 1479 1480 1481 1482 1481 1481 1481 1482 1482 1483 1483 1484 1485 1485 1486 1487
1451 1454 1455 1459 1461 1459 1457 1459 1463 1463 1464 1465 1466 1466 1468 1470 1470 1471 1473 1474 1476 1478 1478 1478 1478 1478 1478 1478 1478 1478 1479 1479 1479 1478 1478 1478 1479 1480 1480 1480 1481 1482 1483 1483
1453 1453 1453 1457 1457 1458 1460 1462 1464 1465 1467 1468 1467 1467 1469 1469 1470 1471 1473 1475 1476 1478 1478 1478 1478 1477 1476 1476 1476 1475 1476 1476 1476 1475 1475 1476 1475 1476 1477 1477 1478 1478 1479 1480
1458 1455 1455 1456 1459 1460 1462 1464 1465 1465 1467 1467 1468 1468 1469 1470 1470 1471 1473 1475 1475 1476 1476 1476 1476 1475 1474 1474 1474 1473 1473 1473 1473 1472 1472 1473 1473 1473 1473 1474 1475 1475 1476 1476
1460 1460 1461 1462 1463 1464 1465 1465 1465 1466 1467 1467 1468 1468 1469 1469 1470 1471 1472 1473 1474 1474 1474 1474 1474 1473 1471 1471 1470 1470 1470 1470 1470 1469 1469 1470 1470 1470 1471 1471 1471 1471 1472 1473